Kuchera_Ratio
0.0 0.0 0.0 0.8 0.0 0.0 4.0 2.5 10.9 4.0 3.6 0.0 0.0 0.0 0.0 0.0 0.0 0.0 0.0 0.0 0.0 0.0 0.0 0.0 0.0 0.0 0.0 0.0 0.0 0.0 0.0 0.0 0.0 0.0 0.0 0.0 0.0 0.0 0.0 0.0 0.0 0.0 0.0 0.0
4.6 0.0 0.0 3.7 1.0 0.0 1.8 2.4 0.0 0.2 2.9 0.0 0.0 0.0 0.0 0.0 0.0 0.0 0.0 0.0 0.0 0.0 0.0 0.0 0.0 0.0 0.0 0.0 0.0 0.0 0.0 0.0 0.0 0.0 0.0 0.0 0.0 0.0 0.0 0.0 0.0 0.0 0.0 0.0
12.6 2.1 1.7 11.8 4.3 0.0 0.0 0.0 0.0 6.2 0.0 0.0 0.0 0.0 0.0 0.0 0.0 0.0 0.0 0.0 0.0 0.0 0.0 0.0 0.0 0.0 0.0 0.0 0.0 0.0 0.0 0.0 0.0 0.0 0.0 0.0 0.0 0.0 0.0 0.0 0.0 0.0 0.0 0.0
11.9 2.2 15.5 1.7 0.0 0.0 0.0 0.0 0.0 0.0 0.0 0.0 0.0 0.0 0.0 0.0 0.0 0.0 0.0 0.0 0.0 0.0 0.0 0.0 0.0 0.0 0.0 0.0 0.0 0.0 0.0 0.0 0.0 0.0 0.0 0.0 0.0 0.0 0.0 0.0 0.0 0.0 0.0 0.0
12.0 12.7 6.4 2.7 0.0 0.0 0.0 0.9 0.0 0.0 0.0 0.0 0.0 0.0 0.0 0.0 0.0 0.0 0.0 0.0 0.0 0.0 0.0 0.0 0.0 0.0 0.0 0.0 0.0 0.0 0.0 0.0 0.0 0.0 0.0 0.0 0.0 0.0 0.0 0.0 0.0 0.0 0.0 0.0
3.7 11.4 14.1 5.5 0.0 0.0 0.0 7.9 0.0 0.0 0.0 0.0 0.0 5.5 2.7 0.0 0.0 0.0 0.0 0.0 0.0 0.0 0.0 0.0 0.0 0.0 0.0 0.0 0.0 0.0 0.0 0.0 0.0 0.0 0.0 0.0 0.0 0.0 0.0 0.0 0.0 0.0 0.0 0.0
5.8 12.4 7.2 0.0 0.0 0.0 11.6 5.3 0.0 0.0 0.0 0.0 1.7 0.0 0.0 0.0 0.0 0.0 0.0 0.0 0.0 0.0 0.0 0.0 0.0 0.0 0.0 0.0 0.0 0.0 0.0 0.0 0.0 0.0 0.0 0.0 0.0 0.0 0.0 0.0 0.0 0.0 0.0 0.0
4.6 12.3 13.6 0.0 0.0 4.2 0.0 0.0 0.0 0.0 0.0 0.0 0.0 0.0 0.0 0.0 0.0 0.0 0.0 0.0 0.0 0.0 0.0 0.0 0.0 0.0 0.0 0.0 0.0 0.0 0.0 0.0 0.0 0.0 0.0 0.0 0.0 0.0 0.0 0.0 0.0 0.0 0.0 0.0
6.4 7.3 0.0 0.0 0.0 0.0 0.0 0.0 0.0 0.0 0.0 0.0 0.0 0.0 0.0 0.0 0.0 0.0 0.0 0.0 0.0 0.0 0.0 0.0 0.0 0.0 0.0 0.0 0.0 0.0 0.0 0.0 0.0 0.0 0.0 0.0 0.0 0.0 0.0 0.0 0.0 0.0 0.0 0.0
1.2 1.9 0.0 0.0 0.0 0.0 0.0 0.0 0.0 0.0 0.0 0.0 0.0 0.0 0.0 0.0 0.0 0.0 0.0 0.0 0.0 0.0 0.0 0.0 0.0 0.0 0.0 0.0 0.0 0.0 0.0 0.0 0.0 0.0 0.0 0.0 0.0 0.0 0.0 0.0 0.0 0.0 0.0 0.0
1.4 1.0 0.0 0.0 0.0 0.0 0.0 0.0 0.0 0.0 0.0 0.0 0.0 0.0 0.0 0.0 0.0 0.0 0.0 0.0 0.0 0.0 0.0 0.0 0.0 0.0 0.0 0.0 0.0 0.0 0.0 0.0 0.0 0.0 0.0 0.0 0.0 0.0 0.0 0.0 0.0 0.0 0.0 0.0
5.2 0.0 0.0 0.0 0.0 0.0 0.0 0.0 0.0 0.0 0.0 0.0 0.0 0.0 0.0 0.0 0.0 0.0 0.0 0.0 0.0 0.0 0.0 0.0 0.0 0.0 0.1 0.0 0.0 0.0 0.0 0.0 0.0 0.0 0.0 0.2 0.8 0.2 0.0 0.0 0.0 0.0 0.0 0.0
0.0 0.0 0.0 0.0 0.0 0.0 0.0 0.0 0.0 0.0 0.0 0.0 0.0 0.0 0.0 0.0 0.0 0.0 0.0 0.0 0.0 0.0 0.0 0.0 0.0 1.3 2.9 2.0 1.4 1.6 1.7 0.7 0.8 0.6 1.6 2.0 1.1 2.6 4.5 0.0 0.0 0.0 0.0 0.0
0.0 0.0 0.0 0.0 0.0 0.0 0.0 0.0 0.0 0.0 0.0 0.0 0.0 0.0 0.0 0.0 0.0 0.0 0.0 0.0 0.0 0.0 0.0 0.0 1.4 3.1 3.9 2.7 3.2 3.8 3.9 0.0 2.6 4.4 5.2 3.5 4.0 5.0 4.8 5.3 4.8 3.0 0.0 0.0
0.0 0.0 0.0 0.0 0.0 0.0 0.0 0.0 0.0 0.0 0.0 0.0 0.0 0.0 0.0 0.0 0.0 0.0 0.0 0.0 0.2 0.0 1.1 2.0 2.9 3.8 4.3 4.0 3.9 5.3 5.4 3.8 3.9 4.5 5.8 5.2 6.1 6.4 6.1 6.0 5.8 5.0 3.2 0.1
0.0 0.0 0.0 0.0 0.0 0.0 0.0 0.0 0.0 0.0 0.0 0.0 0.0 0.0 0.0 0.0 0.5 1.3 1.5 2.3 4.3 4.5 3.2 3.8 4.4 4.2 3.8 4.0 5.8 5.9 6.3 3.2 5.0 8.0 8.2 8.6 7.7 7.4 7.4 7.3 7.3 7.0 6.7 6.2
0.0 0.0 0.0 0.0 0.0 0.0 0.0 0.0 0.0 0.0 0.0 0.0 0.0 0.3 1.6 0.0 2.9 3.0 1.4 1.2 3.5 4.0 3.7 3.5 4.3 4.2 3.3 4.3 6.5 7.2 7.6 8.1 4.0 8.9 9.3 9.7 10.1 10.3 10.0 9.7 8.5 8.0 7.7 6.4
0.0 0.0 0.0 0.0 0.0 0.0 0.0 0.0 0.0 0.0 0.0 0.0 0.8 2.4 2.0 3.4 4.0 2.8 1.4 2.9 4.6 5.6 4.8 4.1 4.6 4.3 4.5 5.1 6.5 8.0 8.3 9.0 9.8 10.3 10.4 10.7 10.8 10.6 11.2 11.0 10.2 9.6 8.8 8.0
0.0 0.0 0.0 0.0 0.0 0.0 0.0 0.0 0.0 0.0 0.5 1.8 3.4 3.9 3.9 4.0 4.7 3.3 4.3 7.1 8.4 9.4 6.6 3.7 2.4 5.7 7.3 5.9 6.5 9.0 9.3 9.6 9.8 9.8 10.0 8.9 10.9 11.1 11.2 11.4 11.6 11.6 11.5 10.5
0.0 0.0 0.0 0.0 0.0 0.0 0.0 0.0 0.0 1.0 2.1 3.0 4.0 5.4 5.7 4.0 2.8 5.5 6.6 8.6 8.4 6.8 5.7 5.7 6.7 7.6 8.0 8.2 3.9 10.0 10.4 9.9 9.9 10.0 10.0 10.3 11.3 11.7 11.7 11.3 11.6 12.2 12.4 11.7
0.0 0.0 0.0 0.0 0.0 0.0 0.0 0.3 1.5 2.6 3.3 4.3 6.2 6.7 6.7 4.0 4.2 6.4 8.7 10.1 7.5 4.6 5.7 6.2 8.0 8.3 8.6 8.1 8.4 10.0 10.7 10.4 10.2 10.3 10.7 11.2 11.8 12.2 12.2 12.5 12.7 12.9 13.1 12.4
0.0 0.0 0.0 0.0 0.0 0.3 1.1 1.9 3.0 4.2 5.2 6.2 6.7 7.5 6.7 6.9 8.2 8.9 7.6 9.5 5.9 1.6 6.6 7.1 7.8 7.6 8.9 3.9 9.4 10.5 10.8 10.4 10.3 10.7 11.6 12.1 12.4 12.5 13.1 13.6 14.0 14.0 14.1 14.4
0.0 0.0 0.0 0.0 0.6 1.8 2.5 3.1 4.5 5.2 6.1 6.7 7.3 7.5 8.2 7.4 8.5 10.0 11.1 5.3 4.7 6.0 7.9 8.0 8.2 3.0 2.1 8.8 9.9 11.0 11.2 10.7 10.9 11.4 12.1 12.4 12.9 13.5 14.1 14.6 14.9 14.9 15.2 15.5
1.1 0.9 0.8 1.9 2.7 2.9 3.1 5.0 5.7 5.1 6.4 5.6 5.6 5.5 7.4 9.0 8.7 6.8 6.3 3.8 1.7 4.4 7.9 8.4 7.5 2.5 1.9 9.2 10.5 11.4 10.9 10.7 11.4 12.0 12.6 12.1 13.6 14.3 14.9 15.4 15.7 15.9 16.1 15.1
1.7 1.5 2.1 2.4 2.9 3.7 4.7 5.5 6.2 6.9 7.4 7.5 6.9 6.2 6.0 6.7 9.1 7.2 5.8 5.9 4.6 4.8 8.2 5.1 3.1 2.7 7.5 10.2 10.6 11.1 10.7 11.0 12.0 12.5 13.1 13.9 14.5 15.0 15.5 15.9 16.3 16.7 16.4 16.2
2.2 2.0 2.3 2.9 3.2 4.5 4.7 5.7 7.1 7.5 8.0 8.3 7.7 6.4 6.2 6.4 7.3 8.1 8.5 9.0 9.7 10.0 10.8 10.9 11.2 10.9 10.4 10.6 11.0 11.5 10.9 11.6 12.4 12.9 13.4 14.1 14.8 15.3 15.8 16.4 17.0 17.3 17.1 17.2
3.8 4.0 4.2 4.7 5.1 5.3 5.9 6.8 8.1 7.1 8.2 9.1 9.5 7.8 7.2 7.1 7.7 8.4 9.1 9.8 10.1 10.7 11.3 11.8 12.1 12.2 11.9 12.1 11.9 11.9 12.3 12.7 13.1 13.7 14.3 14.9 15.5 16.1 16.7 17.2 17.7 18.1 18.0 17.6